Weather History for Chicago Lansing, IL

Change the Weather History Date:

Monday, February 25, 2013

  Actual Average (KMDW) Record (KMDW)
Temperature  
Mean Temperature 30 °F 32 °F  
Max Temperature 43 °F 39 °F 73 °F (2000)
Min Temperature 17 °F 25 °F -5 °F (1967)
Degree Days  
Heating Degree Days 35 33  
Month to date heating degree days 916  
Since 1 July heating degree days 4412  
Cooling Degree Days 0 0  
Month to date cooling degree days 0  
Year to date cooling degree days 0  
Moisture  
Dew Point 24 °F    
Average Humidity 76    
Maximum Humidity 93    
Minimum Humidity 51    
Precipitation  
Precipitation 0.00 in 0.09 in 0.62 in (2007)
Month to date precipitation 1.69  
Year to date precipitation 3.75  
Sea Level Pressure  
Sea Level Pressure 30.09 in    
Wind  
Wind Speed 3 mph (East)    
Max Wind Speed 9 mph    
Max Gust Speed -    
Visibility 9 miles    
Events      
T = Trace of Precipitation, MM = Missing Value Source: NWS Daily Summary

Daily Weather History Graph

Daily Weather History Graph

Search for Another Location

Airport:

Trip Planner

Search our weather history database for the weather conditions in past years. The results will help you decide how hot, cold, wet, or windy it might be!

Date:

Astronomy

Feb. 25, 2013 Rise Set
Actual Time 6:30 AM CST 5:36 PM CST
Civil Twilight 6:02 AM CST 6:04 PM CST
Nautical Twilight 5:30 AM CST 6:36 PM CST
Astronomical Twilight 4:58 AM CST 7:08 PM CST
Moon 5:50 PM CST (2/25) 6:00 AM CST (2/25)
Length of Visible Light 12h 01m
Length of Day
11h 05m
Full, 100% of the Moon is Illuminated
Feb 25
Full
Feb 25
Full
Mar 4
Last Quarter
Mar 11
New
Mar 19
First Quarter

Hourly Weather History & Observations

Time (CST) Temp. Windchill Dew Point Humidity Pressure Visibility Wind Dir Wind Speed Gust Speed Precip Events Conditions
12:15 AM 21.6 °F - 18.5 °F 88% 30.15 in 10.0 mi Calm Calm - N/A   Clear
12:35 AM 19.8 °F - 17.6 °F 91% 30.15 in 10.0 mi Calm Calm - N/A   Clear
12:55 AM 20.8 °F - 18.9 °F 92% 30.15 in 7.0 mi Calm Calm - N/A   Clear
1:15 AM 22.5 °F - 20.3 °F 91% 30.14 in 10.0 mi Calm Calm - N/A   Clear
1:35 AM 21.9 °F - 20.1 °F 93% 30.14 in 10.0 mi Calm Calm - N/A   Clear
1:55 AM 23.0 °F - 19.4 °F 86% 30.14 in 10.0 mi Calm Calm - N/A   Clear
2:15 AM 21.4 °F - 18.9 °F 90% 30.14 in 10.0 mi Calm Calm - N/A   Clear
2:35 AM 18.5 °F - 16.5 °F 92% 30.14 in 7.0 mi Calm Calm - N/A   Clear
2:55 AM 19.9 °F - 18.0 °F 92% 30.14 in 7.0 mi Calm Calm - N/A   Clear
3:15 AM 21.2 °F 16.4 °F 19.4 °F 93% 30.13 in 10.0 mi East 3.5 mph - N/A   Clear
3:35 AM 20.8 °F - 18.5 °F 91% 30.14 in 10.0 mi Calm Calm - N/A   Clear
3:55 AM 18.5 °F - 16.0 °F 90% 30.14 in 7.0 mi Calm Calm - N/A   Clear
4:15 AM 19.4 °F - 17.6 °F 93% 30.14 in 10.0 mi Calm Calm - N/A   Clear
4:35 AM 20.8 °F - 18.7 °F 91% 30.14 in 7.0 mi Calm Calm - N/A   Clear
4:55 AM 20.1 °F - 18.3 °F 93% 30.14 in 7.0 mi Calm Calm - N/A   Clear
5:15 AM 18.3 °F - 16.0 °F 91% 30.15 in 7.0 mi Calm Calm - N/A   Clear
5:35 AM 19.6 °F - 18.0 °F 93% 30.16 in 7.0 mi Calm Calm - N/A   Clear
5:55 AM 20.3 °F - 18.3 °F 92% 30.16 in 7.0 mi Calm Calm - N/A   Clear
6:15 AM 19.4 °F - 17.2 °F 91% 30.18 in 7.0 mi Calm Calm - N/A   Clear
6:35 AM 18.1 °F - 15.8 °F 91% 30.18 in 7.0 mi Calm Calm - N/A   Clear
6:55 AM 17.6 °F - 15.6 °F 92% 30.18 in 7.0 mi Calm Calm - N/A   Clear
7:15 AM 19.9 °F 14.9 °F 18.1 °F 93% 30.17 in 7.0 mi East 3.5 mph - N/A   Clear
7:35 AM 24.4 °F 18.6 °F 22.5 °F 92% 30.16 in 7.0 mi East 4.6 mph - N/A   Clear
7:55 AM 26.6 °F 21.2 °F 22.6 °F 85% 30.16 in 10.0 mi ESE 4.6 mph - N/A   Clear
8:15 AM 28.4 °F 22.2 °F 23.5 °F 82% 30.15 in 10.0 mi ESE 5.8 mph - N/A   Clear
8:35 AM 30.6 °F 23.8 °F 24.3 °F 77% 30.15 in 10.0 mi ESE 6.9 mph - N/A   Scattered Clouds
8:55 AM 32.0 °F 28.7 °F 24.6 °F 74% 30.15 in 10.0 mi SE 3.5 mph - N/A   Clear
9:15 AM 33.4 °F 28.1 °F 24.8 °F 71% 30.15 in 10.0 mi SE 5.8 mph - N/A   Clear
9:35 AM 34.7 °F 30.6 °F 24.6 °F 67% 30.15 in 10.0 mi SE 4.6 mph - N/A   Clear
9:55 AM 36.0 °F 31.1 °F 24.8 °F 64% 30.15 in 10.0 mi SE 5.8 mph - N/A   Clear
10:15 AM 37.4 °F 32.8 °F 25.3 °F 62% 30.15 in 10.0 mi SE 5.8 mph - N/A   Clear
10:35 AM 38.3 °F 31.9 °F 25.0 °F 59% 30.14 in 10.0 mi SE 9.2 mph - N/A   Clear
10:55 AM 39.2 °F 33.0 °F 26.6 °F 61% 30.13 in 10.0 mi ESE 9.2 mph - N/A   Clear
11:15 AM 39.2 °F 33.0 °F 26.1 °F 59% 30.13 in 10.0 mi ESE 9.2 mph - N/A   Clear
11:35 AM 39.9 °F 34.5 °F 26.1 °F 58% 30.14 in 10.0 mi SSE 8.1 mph - N/A   Clear
11:55 AM 39.9 °F 36.7 °F 25.3 °F 56% 30.14 in 10.0 mi SE 4.6 mph - N/A   Clear
12:15 PM 40.8 °F 36.9 °F 26.6 °F 57% 30.13 in 10.0 mi South 5.8 mph - N/A   Clear
12:35 PM 41.2 °F 38.2 °F 26.1 °F 55% 30.12 in 10.0 mi SSE 4.6 mph - N/A   Clear
12:55 PM 41.7 °F 36.7 °F 27.3 °F 57% 30.11 in 10.0 mi ESE 8.1 mph - N/A   Clear
1:15 PM 41.9 °F 38.2 °F 26.4 °F 54% 30.10 in 10.0 mi ESE 5.8 mph - N/A   Clear
1:35 PM 41.9 °F 39.0 °F 25.7 °F 53% 30.09 in 10.0 mi ESE 4.6 mph - N/A   Clear
1:55 PM 42.6 °F 38.4 °F 27.1 °F 54% 30.08 in 10.0 mi ESE 6.9 mph - N/A   Clear
2:15 PM 42.3 °F 38.6 °F 27.0 °F 55% 30.07 in 10.0 mi ESE 5.8 mph - N/A   Clear
2:35 PM 42.8 °F 37.5 °F 27.3 °F 54% 30.06 in 10.0 mi East 9.2 mph - N/A   Clear
2:55 PM 43.2 °F 38.4 °F 27.0 °F 53% 30.07 in 10.0 mi East 8.1 mph - N/A   Clear
3:15 PM 42.8 °F 38.6 °F 26.2 °F 52% 30.08 in 10.0 mi SE 6.9 mph - N/A   Clear
3:35 PM 42.8 °F 41.1 °F 25.9 °F 51% 30.08 in 10.0 mi NE 3.5 mph - N/A   Clear
3:55 PM 41.2 °F 36.0 °F 27.7 °F 59% 30.06 in 10.0 mi NE 8.1 mph - N/A   Clear
4:15 PM 39.9 °F 33.9 °F 27.3 °F 61% 30.05 in 10.0 mi NE 9.2 mph - N/A   Clear
4:35 PM 38.7 °F 32.4 °F 26.2 °F 61% 30.04 in 10.0 mi ENE 9.2 mph - N/A   Clear
4:55 PM 37.4 °F 32.1 °F 26.2 °F 64% 30.04 in 10.0 mi NE 6.9 mph - N/A   Clear
5:15 PM 36.5 °F 33.9 °F 27.3 °F 69% 30.04 in 10.0 mi NE 3.5 mph - N/A   Clear
5:35 PM 35.8 °F 29.4 °F 27.5 °F 72% 30.04 in 10.0 mi NE 8.1 mph - N/A   Clear
5:55 PM 35.6 °F 30.7 °F 28.0 °F 74% 30.04 in 10.0 mi NE 5.8 mph - N/A   Clear
6:15 PM 35.4 °F 30.5 °F 28.4 °F 76% 30.04 in 10.0 mi NE 5.8 mph - N/A   Clear
6:35 PM 35.1 °F 29.3 °F 28.4 °F 77% 30.04 in 10.0 mi NE 6.9 mph - N/A   Clear
6:55 PM 35.1 °F 28.6 °F 28.4 °F 77% 30.02 in 10.0 mi NE 8.1 mph - N/A   Clear
7:15 PM 35.1 °F 28.6 °F 28.4 °F 77% 30.02 in 10.0 mi NE 8.1 mph - N/A   Clear
7:35 PM 34.3 °F 29.2 °F 28.4 °F 79% 30.01 in 10.0 mi NE 5.8 mph - N/A   Clear
7:55 PM 33.8 °F 26.4 °F 28.6 °F 81% 30.00 in 10.0 mi NE 9.2 mph - N/A   Clear
8:15 PM 33.8 °F 27.0 °F 28.9 °F 82% 30.00 in 10.0 mi NE 8.1 mph - N/A   Clear
8:35 PM 33.8 °F 27.7 °F 28.8 °F 82% 30.00 in 10.0 mi NE 6.9 mph - N/A   Clear
8:55 PM 33.1 °F 27.7 °F 28.4 °F 83% 30.02 in 10.0 mi ENE 5.8 mph - N/A   Clear
9:15 PM 33.1 °F 28.7 °F 27.9 °F 81% 30.03 in 10.0 mi NE 4.6 mph - N/A   Clear
9:35 PM 33.1 °F 26.9 °F 27.5 °F 80% 30.03 in 10.0 mi NE 6.9 mph - N/A   Clear
9:55 PM 33.3 °F 27.1 °F 27.5 °F 79% 30.03 in 10.0 mi NE 6.9 mph - N/A   Clear
10:15 PM 33.3 °F 27.1 °F 27.5 °F 79% 30.02 in 10.0 mi NE 6.9 mph - N/A   Clear
10:35 PM 33.4 °F 26.6 °F 27.5 °F 79% 30.00 in 10.0 mi NE 8.1 mph - N/A   Clear
10:55 PM 33.8 °F 26.4 °F 27.3 °F 77% 29.99 in 10.0 mi ENE 9.2 mph - N/A   Clear
11:15 PM 33.6 °F 26.8 °F 27.1 °F 77% 29.98 in 10.0 mi NE 8.1 mph - N/A   Clear
11:35 PM 33.6 °F 26.2 °F 26.6 °F 75% 29.97 in 10.0 mi NE 9.2 mph - N/A   Clear
11:55 PM 33.8 °F 26.4 °F 26.6 °F 75% 29.97 in 10.0 mi ENE 9.2 mph - N/A   Clear